Covington, KY

1:16 AM EDT on September 20, 2017 (GMT -0400)
Cincinnati-Northern KY International

Weather History for KCVG - July, 2013

Change the Weather History Date:

Tuesday, July 30, 2013

  Actual Average Record
Temperature  
Mean Temperature 68 °F 76 °F  
Max Temperature 78 °F 85 °F 101 °F (1999)
Min Temperature 57 °F 66 °F 52 °F (1965)
Degree Days  
Heating Degree Days 0 0  
Month to date heating degree days 2 0  
Since 1 June heating degree days 3 15  
Since 1 July heating degree days 2 0  
Cooling Degree Days 3 11  
Month to date cooling degree days 298 328  
Year to date cooling degree days 676 648  
Since 1 June cooling degree days 537 554  
Growing Degree Days 18 (Base 50)    
Moisture  
Dew Point 60 °F    
Average Humidity 74    
Maximum Humidity 93    
Minimum Humidity 54    
Precipitation  
Precipitation 0.00 in 0.12 in 1.59 in (1891)
Month to date precipitation 5.37 3.64  
Year to date precipitation 29.27 26.26  
Snow  
Snow 0.00 in 0.00 in - ()
Month to date snowfall 0.0 0.0  
Since 1 June snowfall 0.0 0.0  
Since 1 July snowfall 0.0 0.0  
Snow Depth 0.00 in    
Sea Level Pressure  
Sea Level Pressure 30.17 in    
Wind  
Wind Speed 3 mph (South)    
Max Wind Speed 8 mph    
Max Gust Speed 9 mph    
Visibility 10 miles    
Events      
T = Trace of Precipitation, MM = Missing Value Source: NWS Daily Summary

Daily Weather History Graph

Daily Weather History Graph

Search for Another Location

Airport or City:

Trip Planner

Search our weather history database for the weather conditions in past years. The results will help you decide how hot, cold, wet, or windy it might be!

Date:

Astronomy

Jul. 30, 2013 Rise Set
Actual Time 6:37 AM EDT 8:51 PM EDT
Civil Twilight 6:07 AM EDT 9:21 PM EDT
Nautical Twilight 5:30 AM EDT 9:58 PM EDT
Astronomical Twilight 4:50 AM EDT 10:38 PM EDT
Moon 12:54 AM EDT (7/30) 3:11 PM EDT (7/30)
Length of Visible Light 15h 13m
Length of Day
14h 14m
Last Quarter, 41% of the Moon is Illuminated
Jul 30
Last Quarter
Aug 6
New
Aug 14
First Quarter
Aug 20
Full
Aug 28
Last Quarter

Hourly Weather History & Observations

Time (EDT) Temp. Dew Point Humidity Pressure Visibility Wind Dir Wind Speed Gust Speed Precip Events Conditions
12:52 AM 64.9 °F 57.0 °F 75% 30.19 in 10.0 mi Calm Calm - N/A   Overcast
1:52 AM 63.0 °F 57.0 °F 81% 30.19 in 10.0 mi Calm Calm - N/A   Mostly Cloudy
2:52 AM 60.1 °F 57.0 °F 90% 30.19 in 10.0 mi Calm Calm - N/A   Scattered Clouds
3:52 AM 61.0 °F 57.0 °F 87% 30.18 in 10.0 mi Calm Calm - N/A   Scattered Clouds
4:52 AM 63.0 °F 59.0 °F 87% 30.18 in 10.0 mi Calm Calm - N/A   Partly Cloudy
5:52 AM 59.0 °F 57.0 °F 93% 30.19 in 10.0 mi Calm Calm - N/A   Scattered Clouds
6:52 AM 60.1 °F 57.9 °F 93% 30.21 in 10.0 mi Calm Calm - N/A   Scattered Clouds
7:52 AM 63.0 °F 61.0 °F 93% 30.21 in 10.0 mi Calm Calm - N/A   Mostly Cloudy
8:52 AM 66.0 °F 61.0 °F 84% 30.22 in 10.0 mi ESE 4.6 mph - N/A   Overcast
9:52 AM 70.0 °F 62.1 °F 76% 30.21 in 10.0 mi ESE 5.8 mph - N/A   Mostly Cloudy
10:52 AM 75.0 °F 60.1 °F 60% 30.20 in 10.0 mi SE 5.8 mph - N/A   Mostly Cloudy
12:52 PM 77.0 °F 59.0 °F 54% 30.18 in 10.0 mi Calm Calm - N/A   Overcast
1:52 PM 75.0 °F 60.1 °F 60% 30.19 in 10.0 mi SW 4.6 mph - N/A   Overcast
2:52 PM 77.0 °F 61.0 °F 58% 30.17 in 10.0 mi Calm Calm - N/A   Overcast
3:52 PM 75.9 °F 60.1 °F 58% 30.17 in 10.0 mi WSW 3.5 mph - N/A   Overcast
4:52 PM 75.9 °F 61.0 °F 60% 30.15 in 10.0 mi SSW 3.5 mph - N/A   Overcast
5:52 PM 77.0 °F 59.0 °F 54% 30.14 in 10.0 mi Calm Calm - N/A   Overcast
6:52 PM 75.9 °F 64.0 °F 67% 30.14 in 10.0 mi South 4.6 mph - N/A   Overcast
7:52 PM 73.0 °F 64.0 °F 73% 30.14 in 10.0 mi South 5.8 mph - N/A   Overcast
8:52 PM 70.0 °F 63.0 °F 78% 30.12 in 10.0 mi SSE 5.8 mph - N/A   Overcast
9:52 PM 70.0 °F 62.1 °F 76% 30.12 in 10.0 mi South 4.6 mph - N/A   Overcast
10:52 PM 70.0 °F 63.0 °F 78% 30.12 in 10.0 mi South 5.8 mph - N/A   Overcast
11:52 PM 69.1 °F 62.1 °F 78% 30.11 in 10.0 mi SSE 5.8 mph - N/A   Overcast